KRH007 EPRZ-LFPB

Flight info

Callsign KRH007
Flight time N/A
Altitude 38000
Route GOVRI T738 NUMBA DCT BULEK DCT OKG N869 ANELA Z715 COSJE T892 RIDSU Z114 DONAB Y180 DIK UN857 TOLVU/N0430F370 DCT RENSA
Aircraft A319/M-SDE3FGHIRWY/LB1

Departure

Time N/A
Airport Rzeszów-Jasionka Airport (EPRZ)

Arrival

Time 2026-04-17 13:34
Airport Paris-Le Bourget International Airport (LFPB)
Time Latitude Longitude Altitude Speed Heading
2026-04-17 13:13 49.35547 3.94351 13381 ft 288 kts 243°
2026-04-17 13:13 49.34633 3.91626 13144 ft 287 kts 243°
2026-04-17 13:13 49.33728 3.88907 12926 ft 286 kts 243°
2026-04-17 13:13 49.32828 3.86189 12704 ft 285 kts 243°
2026-04-17 13:14 49.31932 3.83486 12480 ft 284 kts 243°
2026-04-17 13:14 49.31100 3.80980 12277 ft 284 kts 243°
2026-04-17 13:14 49.30177 3.78210 12043 ft 283 kts 243°
2026-04-17 13:14 49.29281 3.75533 11810 ft 282 kts 243°
2026-04-17 13:15 49.28385 3.72863 11602 ft 282 kts 243°
2026-04-17 13:15 49.27490 3.70201 11383 ft 281 kts 243°
2026-04-17 13:15 49.26659 3.67503 11172 ft 280 kts 249°
2026-04-17 13:15 49.25996 3.64703 11041 ft 280 kts 250°
2026-04-17 13:16 49.25345 3.61945 10912 ft 279 kts 250°
2026-04-17 13:16 49.24684 3.59153 10771 ft 279 kts 250°
2026-04-17 13:16 49.24018 3.56362 10634 ft 279 kts 250°
2026-04-17 13:16 49.23348 3.53577 10500 ft 280 kts 250°
2026-04-17 13:17 49.22613 3.50533 10347 ft 332 kts 250°
2026-04-17 13:17 49.21773 3.47042 10208 ft 361 kts 250°
2026-04-17 13:17 49.20897 3.43398 10221 ft 368 kts 250°
2026-04-17 13:17 49.19998 3.39663 10230 ft 378 kts 250°
2026-04-17 13:18 49.19084 3.35883 10226 ft 380 kts 250°
2026-04-17 13:18 49.18167 3.32097 10226 ft 380 kts 250°
2026-04-17 13:18 49.17262 3.28365 10228 ft 380 kts 250°
2026-04-17 13:18 49.16342 3.24573 10124 ft 380 kts 250°
2026-04-17 13:19 49.15425 3.20796 9994 ft 379 kts 250°
2026-04-17 13:19 49.14506 3.17023 10016 ft 379 kts 250°
2026-04-17 13:19 49.13584 3.13258 10013 ft 379 kts 250°
2026-04-17 13:19 49.12662 3.09486 10016 ft 379 kts 250°
2026-04-17 13:20 49.11744 3.05728 9379 ft 376 kts 250°
2026-04-17 13:20 49.10837 3.02017 8351 ft 370 kts 250°
2026-04-17 13:20 49.09942 2.98359 7483 ft 366 kts 250°
2026-04-17 13:20 49.09052 2.94725 7161 ft 366 kts 250°
2026-04-17 13:21 49.08157 2.91088 7006 ft 366 kts 249°
2026-04-17 13:21 49.07273 2.87515 7010 ft 366 kts 249°
2026-04-17 13:21 49.06371 2.83879 7006 ft 366 kts 249°
2026-04-17 13:21 49.05469 2.80245 7009 ft 366 kts 249°
2026-04-17 13:22 49.04571 2.76614 7003 ft 367 kts 249°
2026-04-17 13:22 49.03669 2.72975 7009 ft 367 kts 249°
2026-04-17 13:22 49.02763 2.69328 7010 ft 368 kts 249°
2026-04-17 13:22 49.01856 2.65689 7010 ft 368 kts 249°
2026-04-17 13:23 49.00950 2.62053 7013 ft 367 kts 249°
2026-04-17 13:23 49.00045 2.58424 7011 ft 366 kts 249°
2026-04-17 13:23 48.99181 2.54972 7002 ft 327 kts 249°
2026-04-17 13:23 48.98428 2.51975 6858 ft 291 kts 249°
2026-04-17 13:24 48.97731 2.49202 6405 ft 273 kts 249°
2026-04-17 13:24 48.97062 2.46542 5691 ft 267 kts 249°
2026-04-17 13:24 48.96399 2.43917 4945 ft 266 kts 249°
2026-04-17 13:24 48.95742 2.41305 4564 ft 260 kts 249°
2026-04-17 13:25 48.95096 2.38743 4490 ft 260 kts 249°
2026-04-17 13:25 48.94470 2.36264 4364 ft 240 kts 249°
2026-04-17 13:25 48.93903 2.34010 4236 ft 217 kts 249°
2026-04-17 13:25 48.93377 2.31931 4047 ft 207 kts 249°
2026-04-17 13:26 48.92866 2.29910 3985 ft 205 kts 249°
2026-04-17 13:26 48.92353 2.27886 3933 ft 205 kts 249°
2026-04-17 13:26 48.91838 2.25856 3846 ft 206 kts 249°
2026-04-17 13:26 48.91329 2.23855 3768 ft 205 kts 249°
2026-04-17 13:27 48.90813 2.21831 3681 ft 205 kts 249°
2026-04-17 13:27 48.90294 2.19793 3356 ft 210 kts 249°
2026-04-17 13:27 48.89768 2.17729 3132 ft 208 kts 248°
2026-04-17 13:27 48.89252 2.15701 2950 ft 204 kts 249°
2026-04-17 13:28 48.88743 2.13695 2787 ft 203 kts 249°
2026-04-17 13:28 48.88253 2.11686 2696 ft 202 kts 250°
2026-04-17 13:28 48.87779 2.09692 2604 ft 200 kts 251°
2026-04-17 13:28 48.87707 2.07635 2510 ft 202 kts 284°
2026-04-17 13:29 48.88479 2.05884 2506 ft 205 kts 321°
2026-04-17 13:29 48.89826 2.05191 2510 ft 211 kts 359°
2026-04-17 13:29 48.91188 2.05926 2509 ft 213 kts 38°
2026-04-17 13:29 48.91956 2.07802 2506 ft 213 kts 78°
2026-04-17 13:30 48.91878 2.10036 2522 ft 213 kts 101°
2026-04-17 13:30 48.91632 2.12274 2509 ft 214 kts 101°
2026-04-17 13:30 48.91389 2.14506 2507 ft 214 kts 101°
2026-04-17 13:30 48.91150 2.16740 2509 ft 214 kts 100°
2026-04-17 13:31 48.90914 2.18969 2512 ft 214 kts 101°
2026-04-17 13:31 48.90829 2.21214 2505 ft 215 kts 79°
2026-04-17 13:31 48.91444 2.23230 2518 ft 214 kts 58°
2026-04-17 13:31 48.92108 2.25252 2513 ft 213 kts 67°
2026-04-17 13:32 48.92626 2.27283 2508 ft 199 kts 69°
2026-04-17 13:32 48.93098 2.29231 2340 ft 198 kts 70°
2026-04-17 13:32 48.93519 2.31261 2030 ft 204 kts 71°
2026-04-17 13:32 48.94027 2.33332 1543 ft 215 kts 68°
2026-04-17 13:33 48.94605 2.35437 1253 ft 208 kts 66°
2026-04-17 13:33 48.95143 2.37401 908 ft 194 kts 68°
2026-04-17 13:33 48.95638 2.39207 613 ft 173 kts 69°
2026-04-17 13:33 48.96062 2.40809 424 ft 157 kts 69°
2026-04-17 13:34 48.96462 2.42301 214 ft 151 kts 69°
2026-04-17 13:34 48.96812 2.43625 183 ft 101 kts 67°
2026-04-17 13:34 48.96953 2.44152 200 ft 28 kts 79°
2026-04-17 13:34 48.96874 2.44381 196 ft 18 kts 150°
2026-04-17 13:35 48.96768 2.44430 193 ft 17 kts 163°
2026-04-17 13:35 48.96624 2.44500 183 ft 25 kts 162°
2026-04-17 13:35 48.96445 2.44547 178 ft 24 kts 176°
2026-04-17 13:35 48.96276 2.44462 173 ft 28 kts 206°
2026-04-17 13:36 48.96086 2.44332 164 ft 28 kts 204°
2026-04-17 13:36 48.95896 2.44197 158 ft 32 kts 204°
2026-04-17 13:36 48.95683 2.44047 156 ft 35 kts 205°
2026-04-17 13:36 48.95482 2.43903 155 ft 32 kts 207°
2026-04-17 13:37 48.95283 2.43739 153 ft 27 kts 210°
2026-04-17 13:37 48.95138 2.43604 153 ft 19 kts 250°
2026-04-17 13:37 48.95179 2.43422 153 ft 18 kts 296°
2026-04-17 13:37 48.95188 2.43278 154 ft 13 kts 210°
2026-04-17 13:38 48.95114 2.43233 154 ft 9 kts 177°
2026-04-17 13:38 48.95103 2.43267 154 ft 3 kts 104°
2026-04-17 13:38 48.95095 2.43289 154 ft 1 kts 118°
2026-04-17 13:38 48.95095 2.43290 154 ft 0 kts 118°